Back to catalog

JIAOTONG VDES

AliveCommunicationsSSO
NORAD 54588·PAYLOAD·🇨🇳 China

Launched Dec 7, 2022 from Jiuquan Satellite Launch Center

Loading…

Next Passes (next 24 hours)

TLE

FreshSource: Space-Track

Epoch: Sep 14, 2026, 15:00 UTC

1 54588U 22164A   26257.62526656  .00000244  00000-0  80087-4 0  9992
2 54588  98.2419 274.3290 0010981  59.5469 300.6807 14.46121213199007

Track JIAOTONG VDES in real time with AllMySat

Download on the App Store